Location: Archemont
(49.1579°N, 1.7598°E)
Time: 21:50:28
(UTC+00:00)

Altair - Pass Details

Date: 18 April 2024
Orbit: 1501 x 1682 km, 47.2° (Epoch: 19 May)

Event Time Altitude Azimuth Distance (km) Brightness Sun altitude
Rises 20:18:27 0° 243° (WSW) 4,906 10.5 -13.6°
Reaches altitude 10° 20:21:38 10° 241° (WSW) 3,904 9.9 -14.0°
Maximum altitude 20:31:31 69° 161° (SSE) 1,710 7.5 -15.3°
Drops below altitude 10° 20:41:03 10° 81° (E) 3,775 9.2 -16.5°
Sets 20:44:06 0° 79° (E) 4,736 9.7 -16.9°
